[[{"header":{"parameterUnit":"m.s-1","parameterCategory":1,"la1":30.2991,"la2":30.254,"lo1":-89.0895,"lo2":-89.0444,"dy":0.0017,"dx":0.0017,"nx":28,"ny":28,"refTime":"2025-02-08T09:00:00:Z","depth":0,"parameterNumber":2,"parameterNumberName":"U-component_of_WINDS"},"data":[0,0,0,0,0,0,0,0,0,0,0,0,0,0,0,0,0,0,0,0,0,0,0,0,0,0,0,0,0,0,0,0,0,0,0,0,0,0,0,0,0,0,0,0,0,0,0,0,0,0,0,0,0,0,0,0,0,0,-1.7458,-1.7459,0,-1.7546,-1.7547,-1.7548,-1.7568,-1.7568,-1.7567,-1.7567,-1.7658,-1.7661,-1.7664,0,0,0,0,0,0,0,0,0,0,0,0,0,-1.7309,-1.7312,-1.7458,-1.7459,-1.746,-1.7546,-1.7547,-1.7548,-1.7569,-1.7568,-1.7567,-1.7566,-1.7657,-1.7661,-1.7664,0,0,0,0,0,0,0,0,0,0,0,0,0,-1.7383,-1.7313,-1.7458,-1.748,-1.7483,-1.7545,-1.7547,-1.7548,-1.7569,-1.7568,-1.7567,-1.7566,-1.7656,-1.766,-1.7665,-1.7711,0,0,-1.7679,-1.7681,0,0,0,0,0,0,0,0,-1.7379,-1.7389,-1.7476,-1.7479,-1.7482,-1.7545,-1.7528,-1.7603,-1.7569,-1.7536,-1.7567,-1.7566,-1.7621,-1.7629,-1.7647,-1.7715,-1.7719,-1.7679,-1.7682,-1.7684,-1.7685,0,0,0,0,0,0,0,-1.7374,-1.7385,-1.7493,-1.7477,-1.7481,-1.7487,-1.7496,-1.7542,-1.7583,-1.7539,-1.7541,-1.7551,-1.7623,-1.7643,-1.765,-1.772,-1.7679,-1.7683,-1.7686,-1.7688,-1.7831,-1.7832,0,0,0,0,0,0,-1.7364,-1.7381,-1.749,-1.7495,-1.7427,-1.749,-1.7501,-1.7526,-1.7583,-1.759,-1.7552,-1.7552,-1.7636,-1.7644,-1.7653,-1.7711,-1.7684,-1.7688,-1.7691,-1.783,-1.7832,-1.7833,0,0,0,0,0,0,-1.7361,-1.7374,-1.7486,-1.7438,-1.7453,-1.7494,-1.7522,-1.7528,-1.7548,-1.7592,-1.7599,-1.7564,-1.7635,-1.7647,-1.7696,-1.7714,-1.769,-1.7694,-1.7829,-1.7831,-1.7832,-1.7826,0,0,0,0,0,0,-1.7357,-1.7373,-1.739,-1.7439,-1.7456,-1.7528,-1.7523,-1.7531,-1.7556,-1.7556,-1.7606,-1.7613,-1.7635,-1.769,-1.7701,-1.772,-1.7698,-1.7828,-1.783,-1.7832,-1.7825,-1.7827,-1.7829,0,0,0,0,0,-1.7351,-1.7385,-1.7391,-1.7404,-1.7478,-1.7528,-1.7538,-1.7563,-1.7557,-1.7575,-1.7603,-1.7612,-1.7711,-1.7694,-1.7707,-1.7728,-1.7826,-1.7829,-1.7832,-1.7824,-1.7827,-1.7829,0,0,0,0,0,0,-1.7338,-1.7392,-1.7399,-1.7449,-1.7484,-1.7532,-1.7555,-1.7565,-1.7603,-1.7602,-1.7632,-1.7643,-1.7691,-1.7715,-1.7696,-1.7776,-1.7768,-1.7774,-1.7758,-1.7761,-1.7764,-1.7756,-1.7701,0,0,0,0,0,-1.734,-1.7376,-1.7422,-1.7462,-1.7479,-1.7514,-1.7537,-1.7553,-1.7591,-1.7606,-1.7638,-1.7674,-1.7714,-1.7739,-1.7778,-1.7829,-1.784,-1.7849,-1.7852,-1.7853,-1.7857,-1.7886,-1.7891,-1.7841,-1.7841,-1.7841,0,0,-1.7346,-1.738,-1.7401,-1.746,-1.7489,-1.7526,-1.7526,-1.7565,-1.7593,-1.7612,-1.766,-1.7685,-1.7729,-1.7779,-1.7803,-1.78,-1.7874,-1.7857,-1.7858,-1.7861,-1.7889,-1.7894,-1.7898,-1.7843,-1.7842,-1.7842,0,0,-1.7376,-1.7405,-1.7442,-1.7471,-1.7515,-1.7538,-1.7547,-1.7594,-1.7611,-1.766,-1.7675,-1.7709,-1.7776,-1.7807,-1.7831,-1.7873,-1.7882,-1.7885,-1.7896,-1.7925,-1.7928,-1.7932,-1.7947,-1.7952,-1.7889,-1.7889,-1.7889,0,-1.7378,-1.7434,-1.7459,-1.7498,-1.7523,-1.7542,-1.7579,-1.7606,-1.7661,-1.7678,-1.7675,-1.776,-1.779,-1.7848,-1.7859,-1.7878,-1.7889,-1.7879,-1.7926,-1.793,-1.7933,-1.7948,-1.7954,-1.7889,-1.7889,-1.7889,-1.7889,0,-1.7434,-1.7472,-1.7497,-1.7548,-1.7577,-1.7615,-1.7647,-1.7673,-1.7687,-1.7711,-1.7761,-1.7798,-1.7845,-1.786,-1.7874,-1.7921,-1.7918,-1.792,-1.7913,-1.7938,-1.7952,-1.7958,-1.7889,-1.7889,-1.7889,-1.7889,0,0,-1.7456,-1.7522,-1.753,-1.7554,-1.7604,-1.7635,-1.7674,-1.772,-1.7741,-1.7779,-1.7812,-1.7869,-1.7872,-1.7899,-1.7917,-1.7942,-1.7973,-1.7941,-1.7942,-1.7945,-1.8026,-1.8024,-1.803,-1.798,-1.7981,-1.7982,-1.8023,0,-1.7491,-1.7561,-1.7586,-1.7643,-1.7679,-1.7698,-1.7732,-1.7767,-1.7791,-1.7826,-1.7853,-1.7892,-1.7892,-1.7909,-1.7935,-1.7964,-1.799,-1.7961,-1.8012,-1.8013,-1.7999,-1.8038,-1.8035,-1.8072,-1.8028,-1.8029,-1.803,0,-1.7542,-1.7579,-1.764,-1.7686,-1.7702,-1.7732,-1.7776,-1.7809,-1.785,-1.7866,-1.7896,-1.7913,-1.7955,-1.7947,-1.8006,-1.7986,-1.8009,-1.8026,-1.8028,-1.8033,-1.8022,-1.8043,-1.8084,-1.8089,-1.8039,-1.8038,-1.8038,0,-1.7551,-1.7617,-1.7662,-1.7682,-1.7737,-1.7758,-1.7782,-1.7822,-1.7848,-1.7886,-1.7903,-1.7947,-1.7971,-1.8004,-1.8032,-1.8023,-1.8089,-1.8083,-1.8104,-1.8103,-1.8116,-1.8115,-1.816,-1.8131,-1.8131,-1.8131,-1.8131,0,-1.7588,-1.7624,-1.7667,-1.7695,-1.7737,-1.7765,-1.7806,-1.7832,-1.7867,-1.79,-1.792,-1.7951,-1.7986,-1.8022,-1.8045,-1.8091,-1.8101,-1.8116,-1.8121,-1.8113,-1.8112,-1.8128,-1.8126,-1.8133,-1.8132,-1.8132,-1.8132,0,-1.7605,-1.7636,-1.7686,-1.7734,-1.7747,-1.7775,-1.7817,-1.7845,-1.787,-1.7912,-1.7924,-1.7963,-1.8007,-1.8038,-1.8095,-1.811,-1.8159,-1.8165,-1.8145,-1.8147,-1.8166,-1.8164,-1.8224,-1.8233,-1.8198,-1.8199,-1.8199,0,-1.7626,-1.7655,-1.7706,-1.7729,-1.7753,-1.7791,-1.7817,-1.7847,-1.7874,-1.7923,-1.7945,-1.799,-1.8027,-1.8096,-1.813,-1.8174,-1.818,-1.8198,-1.8187,-1.8178,-1.818,-1.8178,-1.8181,-1.8199,-1.82,-1.82,-1.82,0,-1.766,-1.7674,-1.7711,-1.7753,-1.7784,-1.7819,-1.7854,-1.7873,-1.7909,-1.7939,-1.7983,-1.8012,-1.8069,-1.8114,-1.8161,-1.8187,-1.82,-1.8203,-1.8211,-1.8203,-1.819,-1.8197,-1.8149,-1.8202,-1.8202,-1.8201,-1.8201,-1.8201,-1.768,-1.7706,-1.7746,-1.7787,-1.7817,-1.7849,-1.7878,-1.7907,-1.7944,-1.7992,-1.8008,-1.8054,-1.8095,-1.8159,-1.8186,-1.8223,-1.8222,-1.8233,-1.8235,-1.8237,-1.8237,-1.8185,-1.8232,-1.8232,-1.8232,-1.8232,-1.8232,0,-1.7715,-1.7742,-1.7779,-1.7827,-1.786,-1.7869,-1.7909,-1.7935,-1.7975,-1.8012,-1.8048,-1.8099,-1.8143,-1.8181,-1.8226,-1.8248,-1.8255,-1.8259,-1.8258,-1.8263,-1.8235,-1.8224,-1.8253,-1.8253,-1.8253,-1.8253,-1.8252,-1.8252,-1.7737,-1.7782,-1.78,-1.786,-1.7887,-1.7932,-1.7954,-1.7984,-1.8013,-1.807,-1.8105,-1.813,-1.8167,-1.8215,-1.8256,-1.8266,-1.8282,-1.8284,-1.8296,-1.8268,-1.8265,-1.8263,-1.8253,-1.8287,-1.8287,-1.8321,-1.8321,-1.8322]},{"header":{"parameterUnit":"m.s-1","parameterCategory":1,"la1":30.2991,"la2":30.254,"lo1":-89.0895,"lo2":-89.0444,"dy":0.0017,"dx":0.0017,"nx":28,"ny":28,"refTime":"2025-02-08T09:00:00:Z","depth":0,"parameterNumber":3,"parameterNumberName":"V-component_of_WINDS"},"data":[0,0,0,0,0,0,0,0,0,0,0,0,0,0,0,0,0,0,0,0,0,0,0,0,0,0,0,0,0,0,0,0,0,0,0,0,0,0,0,0,0,0,0,0,0,0,0,0,0,0,0,0,0,0,0,0,0,0,0.9767,0.9769,0,0.9873,0.9874,0.9875,0.9894,0.9893,0.9892,0.9891,1.0002,1.0005,1.0009,0,0,0,0,0,0,0,0,0,0,0,0,0,0.9586,0.9589,0.9767,0.9769,0.977,0.9873,0.9874,0.9875,0.9894,0.9893,0.9892,0.9891,1.0,1.0005,1.0009,0,0,0,0,0,0,0,0,0,0,0,0,0,0.9675,0.959,0.9767,0.9792,0.9795,0.9872,0.9874,0.9876,0.9894,0.9893,0.9892,0.9891,0.9999,1.0004,1.001,1.0071,0,0,1.0027,1.003,0,0,0,0,0,0,0,0,0.967,0.9682,0.9787,0.979,0.9794,0.9869,0.985,0.9941,0.9895,0.9857,0.9891,0.989,0.9959,0.9968,0.999,1.0076,1.0081,1.0028,1.0031,1.0034,1.0035,0,0,0,0,0,0,0,0.9664,0.9677,0.9809,0.9788,0.9793,0.9799,0.981,0.9868,0.9914,0.986,0.9861,0.9874,0.996,0.9985,0.9993,1.0083,1.0028,1.0033,1.0036,1.0038,1.0228,1.0229,0,0,0,0,0,0,0.9653,0.9672,0.9806,0.9812,0.9727,0.9803,0.9815,0.9846,0.9913,0.9922,0.9875,0.9874,0.9976,0.9986,0.9997,1.0076,1.0033,1.0039,1.0042,1.0226,1.0228,1.023,0,0,0,0,0,0,0.9649,0.9665,0.9802,0.9743,0.9761,0.9807,0.9842,0.9849,0.9873,0.9924,0.9933,0.9891,0.9975,0.9989,1.0053,1.008,1.0041,1.0046,1.0224,1.0227,1.0229,1.0231,0,0,0,0,0,0,0.9644,0.9663,0.9686,0.9743,0.9764,0.9855,0.9843,0.9852,0.9883,0.9883,0.9942,0.995,0.9975,1.0045,1.0059,1.0087,1.0051,1.0222,1.0225,1.0228,1.0229,1.0234,1.0238,0,0,0,0,0,0.9637,0.9682,0.9687,0.9703,0.9793,0.9856,0.9868,0.9895,0.9885,0.9909,0.9942,0.9949,1.0074,1.0051,1.0067,1.0097,1.022,1.0224,1.0228,1.0227,1.0233,1.0237,0,0,0,0,0,0,0.9627,0.969,0.9696,0.9761,0.9803,0.9859,0.989,0.99,0.9946,0.9945,0.9977,0.999,1.0053,1.0081,1.0055,1.0161,1.0147,1.0154,1.0141,1.0146,1.015,1.0143,1.0056,0,0,0,0,0,0.9632,0.9677,0.973,0.9782,0.9803,0.9843,0.9872,0.9889,0.9934,0.9953,0.999,1.0035,1.0085,1.0117,1.0165,1.0233,1.0248,1.0262,1.0266,1.0269,1.0275,1.0317,1.0324,1.0242,1.0242,1.0242,0,0,0.9644,0.9684,0.971,0.9782,0.9816,0.9864,0.9858,0.9908,0.9945,0.996,1.0024,1.0053,1.0105,1.0172,1.0204,1.0198,1.0301,1.0274,1.0276,1.0281,1.0321,1.0329,1.0336,1.0245,1.0244,1.0244,0,0,0.969,0.9723,0.9772,0.9807,0.986,0.9886,0.9898,0.9953,0.9973,1.0037,1.0051,1.0095,1.0179,1.0217,1.0247,1.0309,1.0318,1.0324,1.0346,1.0386,1.0392,1.0398,1.0423,1.0431,1.0329,1.0329,1.0329,0,0.9698,0.9769,0.9796,0.9846,0.9878,0.9894,0.9945,0.9978,1.0044,1.0066,1.0058,1.0166,1.0202,1.028,1.0295,1.0318,1.0334,1.0318,1.0389,1.0395,1.0401,1.0425,1.0434,1.033,1.033,1.033,1.033,0,0.9778,0.9827,0.986,0.9924,0.9959,1.0009,1.0045,1.0078,1.0093,1.012,1.0187,1.0231,1.029,1.0309,1.0323,1.0389,1.0384,1.0382,1.0368,1.0409,1.0433,1.0442,1.0331,1.0331,1.033,1.033,0,0,0.9821,0.9899,0.9911,0.9942,1.0001,1.0041,1.0093,1.015,1.0179,1.0224,1.027,1.0342,1.0341,1.0375,1.0394,1.0428,1.0478,1.0422,1.0424,1.0434,1.0557,1.056,1.057,1.0484,1.0485,1.0487,1.0554,0,0.9876,0.9968,0.9994,1.0073,1.0121,1.0137,1.0183,1.0225,1.0253,1.0298,1.0329,1.0381,1.0374,1.0395,1.043,1.0464,1.0504,1.046,1.0529,1.0531,1.0518,1.0582,1.0585,1.0647,1.0563,1.0564,1.0566,0,0.9953,1.0,1.0083,1.0139,1.016,1.02,1.0256,1.0299,1.0348,1.0366,1.0405,1.0421,1.0478,1.046,1.054,1.0509,1.0539,1.0561,1.0564,1.0573,1.0552,1.0596,1.0666,1.0677,1.058,1.0579,1.0578,0,0.9979,1.0063,1.0125,1.015,1.0216,1.0244,1.0273,1.0321,1.0355,1.0404,1.0427,1.0482,1.0512,1.0555,1.0587,1.057,1.0666,1.0649,1.0684,1.0684,1.0705,1.0704,1.0784,1.072,1.072,1.072,1.072,0,1.004,1.0091,1.0138,1.0176,1.0235,1.0264,1.0322,1.0352,1.0395,1.0441,1.0458,1.05,1.0538,1.0586,1.0611,1.0676,1.0689,1.0706,1.0713,1.0707,1.0705,1.0728,1.0726,1.0722,1.0722,1.0721,1.0721,0,1.008,1.0113,1.0182,1.0239,1.0255,1.0296,1.0346,1.0384,1.0412,1.047,1.0485,1.053,1.0588,1.0623,1.0697,1.0714,1.0786,1.0789,1.0769,1.0773,1.0807,1.0804,1.0907,1.0923,1.0846,1.0846,1.0847,0,1.0118,1.0158,1.0219,1.0251,1.028,1.033,1.0365,1.0396,1.0432,1.0493,1.0525,1.0583,1.0632,1.0725,1.0765,1.0822,1.0829,1.0861,1.0837,1.0831,1.0833,1.0831,1.0837,1.0865,1.0866,1.0866,1.0867,0,1.0182,1.0197,1.0245,1.0301,1.0341,1.0386,1.0431,1.0456,1.0496,1.0535,1.0594,1.0632,1.0708,1.0767,1.0828,1.0859,1.0871,1.0874,1.0886,1.0881,1.0869,1.0879,1.0783,1.0872,1.0871,1.0871,1.0871,1.087,1.0224,1.0262,1.0311,1.0366,1.0403,1.0445,1.0485,1.0518,1.0568,1.0631,1.0647,1.071,1.0761,1.0844,1.0877,1.0928,1.0923,1.0939,1.0944,1.0948,1.0951,1.0858,1.0939,1.0938,1.0938,1.0938,1.0938,0,1.0292,1.0325,1.0375,1.0437,1.0481,1.0486,1.0537,1.0573,1.0628,1.0674,1.0722,1.0792,1.085,1.0895,1.0955,1.0987,1.0994,1.1002,1.1002,1.101,1.095,1.0935,1.0996,1.0996,1.0996,1.0996,1.0996,1.0996,1.0333,1.0397,1.0418,1.0502,1.0535,1.0596,1.0625,1.0665,1.0702,1.0779,1.0827,1.0855,1.0902,1.0966,1.102,1.1032,1.1055,1.1062,1.1076,1.102,1.1013,1.1008,1.0994,1.1066,1.1066,1.1132,1.1132,1.1133]}]]